This demonstration page uses our WeatherBlox Daily Observations layout. Learn more.

Left ArrowRight Arrow

38.20091, -84.87328

Hourly Observations for April 2, 2016

Temp ( °F °C ) Dew Point ( °F °C ) Humidity (%) Winds ( mph kmh ) Pressure ( in mb ) Visibility ( mi km ) Precip ( " mm )
12:53 am 00:53 Clear 49 9.4 33 0.6 55 55 WNW 5 7 29.84 1011 10 16 0.00 0.00
1:53 am 01:53 Clear 48 8.9 33 0.6 56 56 WNW 5 7 29.83 1010 10 16 0.00 0.00
2:53 am 02:53 Mostly Clear 48 8.9 33 0.6 56 56 W 8 13 29.82 1010 10 16 0.00 0.00
3:53 am 03:53 Clear 47 8.3 33 0.6 59 59 W 7 11 29.81 1010 10 16 0.00 0.00
4:53 am 04:53 Clear 45 7.2 34 1.1 66 66 WNW 7 11 29.82 1010 10 16 0.00 0.00
5:53 am 05:53 Mostly Cloudy 44 6.7 35 1.7 71 71 W 6 9 29.83 1010 10 16 0.00 0.00
6:20 am 06:20 Partly Cloudy 43 6.1 34 1.1 71 71 WNW 6 9 29.88 1012 10 16 0.00 0.00
6:53 am 06:53 Clear 41 5 33 0.6 73 73 Calm 29.85 1011 10 16 0.00 0.00
7:53 am 07:53 Sunny 41 5 33 0.6 73 73 W 5 7 29.86 1011 10 16 0.00 0.00
8:53 am 08:53 Sunny 44 6.7 33 0.6 65 65 WNW 7 11 29.86 1011 10 16 0.00 0.00
9:53 am 09:53 Mostly Sunny 46 7.8 31 -0.6 56 56 WNW 9 15 29.85 1011 10 16 0.00 0.00
10:53 am 10:53 Mostly Sunny 49 9.4 31 -0.6 50 50 W 9 15 29.83 1010 10 16 0.00 0.00
11:53 am 11:53 Partly Cloudy 50 10 29 -1.7 44 44 WSW 15 24 29.80 1009 10 16 0.00 0.00
12:53 pm 12:53 Mostly Sunny 50 10 28 -2.2 43 43 WSW 18 30 29.77 1008 10 16 0.00 0.00
1:53 pm 13:53 Mostly Sunny 54 12.2 28 -2.2 37 37 SW 22 35 29.73 1007 10 16 0.00 0.00
2:53 pm 14:53 Sunny 56 13.3 29 -1.7 36 36 WSW 17 28 29.68 1005 10 16 0.00 0.00
3:53 pm 15:53 Cloudy 55 12.8 28 -2.2 35 35 WSW 24 39 29.66 1004 10 16 0.00 0.00
4:53 pm 16:53 Cloudy 56 13.3 26 -3.3 32 32 W 23 37 29.66 1004 10 16 0.00 0.00
5:53 pm 17:53 Cloudy 55 12.8 25 -3.9 31 31 WNW 23 37 29.67 1005 10 16 0.00 0.00
6:53 pm 18:53 Mostly Cloudy 54 12.2 25 -3.9 33 33 W 15 24 29.72 1007 10 16 0.00 0.00
7:53 pm 19:53 Sunny 51 10.6 14 -10 23 23 WNW 20 31 29.80 1009 10 16 0.00 0.00
8:53 pm 20:53 Clear 47 8.3 14 -10 26 26 WNW 20 31 29.87 1012 10 16 0.00 0.00
9:53 pm 21:53 Clear 44 6.7 16 -8.9 32 32 NW 21 33 29.95 1014 10 16 0.00 0.00
10:53 pm 22:53 Clear 41 5 16 -8.9 36 36 NW 12 19 29.99 1016 10 16 0.00 0.00
11:53 pm 23:53 Clear 40 4.4 15 -9.4 36 36 WNW 8 13 30.02 1017 10 16 0.00 0.00

Powered by AerisWeather